Погода в Борятине

Россия / Тульская область     53°24′54″N   38°09′34″E
темп.,
°C
ветер,
м/с
пор.,
м/с
влажн.,
%
обл.,
%
осадки,
мм/ч
давл.,
гПа
погр.,
м
28 сентября, вт
вт2800:00+8ссв5991100 0.2 1022735
03:00+8ссв4892100 0.7 1022584
06:00+7св5890100 0.3 1024747
09:00+6св5889100 0.4 1026894
12:00+6св5887100 0.1 1027733
15:00+7св5781100 0.3 1029764
18:00+5св5982100 0.0 1031767
21:00+5св4983100 0.0 1032536
29 сентября, ср
ср2900:00+4ссв37885 0.0 1033155
03:00+2ссв37895 0.0 1034146
06:00+2ссв36914 0.0 1035127
09:00+5ссв46755 0.0 1035315
12:00+9св45585 0.0 1034875
15:00+10ссв44515 0.0 10331093
18:00+7ссв33645 0.0 103330
21:00+6ссв237387 0.0 103433
30 сентября, чт
чт3000:00+5с22795 0.0 103416
03:00+4с22845 0.0 103526
06:00+4с238869 0.0 103537
09:00+7ссв2477100 0.0 1035167
12:00+9св236764 0.0 1035442
15:00+11св235586 0.0 10341318
18:00+9с22675 0.0 103413
21:00+7с22745 0.0 103516
1 октября, пт
пт100:00+6ссв11775 0.0 103610
03:00+6ссз11795 0.0 103610
06:00+5ссз22825 0.0 103610
09:00+8ссз12695 0.0 1036160
12:00+12з00575 0.0 1036744
15:00+13зюз11535 0.0 1035963
18:00+10зюз11645 0.0 103510
21:00+9зюз11695 0.0 103510
2 октября, сб
сб200:00+8з11745 0.0 103510
03:00+7з117835 0.0 103510
06:00+6сз118062 0.0 103510
09:00+10ссз006988 0.0 1035131
12:00+12ююз106299 0.0 1035367
15:00+13ю2160100 0.0 1034539
18:00+11ю116998 0.0 103412
21:00+10ююв1170100 0.0 103416